Weather observations for the past three days for
Barksdale Air Force Base
Imperial (Metric)
Date Time (cdt) Wind (mph) Vis. (mi.) Weather Sky Cond. Temperature (ºF) Relative Humidity Wind Chill (°F) Heat Index (°F) Pressure Precipitation (in)
Air Dwpt 6 hour altimeter (in) sea level (mb) 1 hr 3 hr 6 hr
Max. Min.
18 07:55 Calm 10.00 Overcast SCT070 OVC090 76.1 72 87% 77 30.04 1017.5
18 06:55 Calm 10.00 Overcast BKN150 OVC170 75 72.5 76.6 73.4 92% 74 30.02 1016.8
18 05:55 Calm 10.00 Mostly Cloudy BKN070 75.2 71.4 88% 75 30.01 1016.4
18 04:55 Calm 10.00 A Few Clouds FEW110 75 70.9 87% 75 29.99 1015.8
18 03:55 Calm 9.00 A Few Clouds FEW070 FEW140 75.4 71.6 88% 75 30.01 1016.4
18 02:55 S 3 8.00 A Few Clouds FEW110 75.7 69.8 82% 76 30.01 1016.4
18 01:55 Calm 9.00 Mostly Cloudy BKN110 74.5 71.1 89% 30.01 1016.4
18 00:55 SE 3 9.00 Partly Cloudy SCT140 73.9 71.4 79.3 73.9 92% 30.01 1016.4 0.01
17 23:55 NE 7 10.00 A Few Clouds FEW220 75.2 70.7 86% 75 30.01 1016.4
17 22:55 SE 7 10.00 Fair CLR 74.8 71.6 90% 29.99 1015.8
17 21:55 NE 5 10.00 Fair CLR 76.5 70.9 83% 78 30.01 1016.4 0.01
17 20:55 E 3 10.00 Partly Cloudy SCT230 76.8 70.5 81% 78 29.99 1015.8
17 19:55 Calm 10.00 Fair CLR 77.2 70.9 81% 79 29.98 1015.5 0.01
17 18:55 Calm 8.00 Light Rain BKN026 78.8 72 95.9 78.8 80% 82 29.98 1015.5 0.03 0.03
17 17:55 SW 13 G 20 10.00 Mostly Cloudy SCT050 BKN075 BKN100 BKN120 94.6 72.5 49% 104 29.93 1013.7
17 16:55 S 7 10.00 Fair CLR 93.6 72.7 51% 102 29.93 1013.7
17 15:55 S 7 10.00 Partly Cloudy FEW045 SCT060 94.8 73.8 51% 105 29.91 1013.0
17 14:55 S 9 10.00 A Few Clouds FEW041 94.3 75 54% 106 29.93 1013.7
17 13:55 S 9 10.00 Partly Cloudy FEW038 FEW120 SCT140 SCT190 92.5 75.4 58% 104 29.96 1014.7
17 12:55 SW 6 10.00 A Few Clouds FEW190 92.5 75.4 92.5 79.3 58% 104 29.99 1015.8
17 10:55 SW 7 10.00 Fair CLR 89.1 74.3 62% 98 30.03 1017.1
17 09:55 W 8 10.00 A Few Clouds FEW024 87.4 74.7 66% 97 30.02 1016.8
17 08:55 SW 9 10.00 Fair CLR 84.4 75 74% 93 30 1016.1
17 07:55 W 3 10.00 Fair CLR 81.3 75.6 83% 88 30 1016.1
17 06:55 S 8 10.00 Fair CLR 79.2 74.8 82 75.9 87% 83 29.98 1015.4
17 05:55 S 7 10.00 Fair CLR 79 74.7 87% 83 29.96 1014.7
17 04:55 SW 7 10.00 Fair CLR 79.7 74.3 84% 84 29.97 1015.1
17 03:55 SW 8 10.00 Fair CLR 80.6 74.1 81% 86 29.96 1014.7
17 02:55 SW 9 10.00 Fair CLR 81.3 74.1 79% 87 29.95 1014.4
17 01:55 S 8 10.00 Fair CLR 79.2 74.1 85% 83 29.93 1013.7
17 00:55 S 7 10.00 Fair CLR 76.8 72.7 93.7 76.3 87% 78 29.93 1013.7
16 23:55 SE 3 10.00 Fair CLR 78.1 72.9 84% 81 29.93 1013.7
16 22:55 SE 3 10.00 Fair CLR 80.8 72.9 77% 85 29.93 1013.7
16 21:55 SE 5 10.00 Fair CLR 83.5 72.7 70% 89 29.93 1013.7
16 20:55 S 8 10.00 Fair CLR 88.3 71.6 58% 95 29.91 1013.0
16 19:55 S 10 10.00 Fair CLR 90.7 70 51% 96 29.9 1012.7
16 18:55 S 10 10.00 Fair CLR 94.1 66.7 96.1 92.7 41% 98 29.9 1012.7
16 17:55 SW 8 10.00 Fair CLR 94.8 66.6 40% 98 29.91 1013.0
16 16:55 SW 10 10.00 Fair CLR 95.5 66.6 39% 99 29.92 1013.4
16 15:55 S 12 10.00 Fair CLR 95.2 66.9 40% 99 29.92 1013.4
16 14:55 S 13 10.00 Fair CLR 94.3 66.9 41% 98 29.94 1014.0
16 13:55 SW 8 10.00 A Few Clouds FEW190 94.1 66.7 41% 98 29.96 1014.7
16 12:55 SW 7 10.00 A Few Clouds FEW170 FEW200 93 65.8 93 79.9 41% 96 29.98 1015.4
16 11:55 SW 10 10.00 Fair CLR 91 66.7 45% 94 29.99 1015.7
16 10:55 W 10 10.00 Fair CLR 89.4 69.4 52% 94 29.99 1015.7
16 09:55 SW 9 10.00 Fair CLR 87.1 72 61% 94 29.99 1015.7
16 08:55 SW 12 10.00 Fair CLR 84.4 73.9 71% 92 29.99 1015.7
16 07:55 SW 13 10.00 A Few Clouds FEW014 82 75.2 80% 89 29.99 1015.7
16 06:55 SW 7 10.00 Fair CLR 79.9 74.1 84.9 79.2 83% 84 29.98 1015.4
16 05:55 S 7 10.00 Fair CLR 79.3 73.9 84% 83 29.96 1014.7
16 04:55 S 9 10.00 Fair CLR 79.7 74.3 84% 84 29.95 1014.4
16 03:55 S 7 10.00 Fair CLR 81.1 74.7 81% 87 29.95 1014.4
16 02:55 S 9 10.00 Fair CLR 82 74.5 78% 88 29.95 1014.4
16 01:55 SW 10 10.00 Fair CLR 84 74.8 74% 92 29.95 1014.4
16 00:55 SW 8 10.00 Fair CLR 84.7 74.7 92.5 81.9 72% 93 29.94 1014.0
15 23:55 S 8 10.00 Fair CLR 86 74.5 69% 94 29.93 1013.7
15 22:55 S 6 10.00 Fair CLR 86.4 75.4 70% 96 29.93 1013.7
15 21:55 S 6 10.00 Fair CLR 86.7 74.8 68% 96 29.92 1013.4
15 20:55 S 8 10.00 Fair CLR 88.5 73.8 62% 97 29.93 1013.7
15 19:55 S 8 10.00 Fair CLR 90.9 72.9 56% 99 29.93 1013.7
15 18:55 S 9 10.00 Partly Cloudy SCT049 92.7 72.3 95.5 92.7 52% 101 29.93 1013.7
15 17:55 S 10 10.00 A Few Clouds FEW050 94.8 71.4 47% 103 29.92 1013.4
15 16:55 SW 10 10.00 Fair CLR 95.4 70 44% 102 29.94 1014.0
15 15:55 S 8 10.00 A Few Clouds FEW050 95 70.9 46% 102 29.95 1014.4
15 14:55 S 10 10.00 A Few Clouds FEW210 94.8 72.5 49% 104 29.98 1015.4
15 13:55 SW 7 10.00 Mostly Cloudy FEW130 FEW150 BKN190 94.1 70.7 47% 101 30 1016.1
15 12:55 SW 10 G 18 10.00 A Few Clouds FEW160 FEW210 92.8 71.4 93.2 79.5 50% 100 30.02 1016.8
15 11:55 W 8 10.00 Fair CLR 91.2 72.1 54% 99 30.04 1017.4
15 10:55 SW 9 10.00 Fair CLR 90.1 73.8 59% 99 30.06 1018.1
15 09:55 SW 10 10.00 Fair CLR 87.3 74.5 66% 96 30.07 1018.5
15 08:55 SW 8 10.00 Fair CLR 84.6 76.1 76% 94 30.08 1018.8
Date Time (cdt) Wind (mph) Vis. (mi.) Weather Sky Cond. Air Dwpt Max. Min. Relative Humidity Wind Chill (°F) Heat Index (°F) altimeter (in) sea level (mb) 1 hr 3 hr 6 hr
6 hour
Temperature (ºF) Pressure Precipitation (in)